| time (UTC) | temp C | wind direction | speed KPH | gust KPH | rain 1hr cm | rain 24hr cm | rain mn cm | humidity % | barometer mb |
| 20260903060151 | 18 | 302 | 4.8 | 11.3 | 0.00 | 0.00 | 0.00 | 91 | 1017.9 |
| 20260903050151 | 20 | 157 | 0.0 | 4.8 | 0.00 | 0.00 | 0.00 | 84 | 1018.1 |
| 20260903040152 | 19 | 169 | 0.0 | 0.0 | 0.00 | 0.00 | 0.00 | 82 | 1018.4 |
| 20260903030151 | 19 | 0 | 0.0 | 0.0 | 0.00 | 0.00 | 0.00 | 79 | 1018.7 |
| 20260903020151 | 20 | 223 | 0.0 | 4.8 | 0.00 | 0.00 | 0.00 | 76 | 1019.7 |
| 20260903010151 | 20 | 167 | 1.6 | 4.8 | 0.00 | 0.03 | 0.00 | 74 | 1019.6 |
| 20260903000152 | 20 | 112 | 1.6 | 4.8 | 0.00 | 0.03 | 0.00 | 73 | 1019.2 |
| 20260902230151 | 21 | 174 | 0.0 | 4.8 | 0.00 | 0.03 | 0.00 | 71 | 1020.2 |
| 20260902220151 | 21 | 166 | 0.0 | 4.8 | 0.00 | 0.23 | 0.00 | 70 | 1020.5 |
| 20260902210151 | 22 | 177 | 1.6 | 6.4 | 0.00 | 0.30 | 0.00 | 70 | 1019.9 |
| 20260902200151 | 22 | 114 | 1.6 | 4.8 | 0.00 | 0.30 | 0.00 | 71 | 1020.3 |
| 20260902191742 | 24 | 170 | 3.2 | 11.3 | 0.00 | 0.30 | 0.00 | 54 | 1020.8 |
| 20260902190151 | 23 | 155 | 0.0 | 4.8 | 0.00 | 0.30 | 0.00 | 56 | 1020.6 |
| 20260902170151 | 24 | 170 | 3.2 | 11.3 | 0.00 | 0.30 | 0.00 | 54 | 1020.8 |
| 20260902160151 | 23 | 111 | 1.6 | 9.7 | 0.00 | 0.30 | 0.00 | 62 | 1021.1 |
| 20260902123150 | 17 | 11 | 0.0 | 0.0 | 0.00 | 0.46 | 0.00 | 93 | 1021.2 |
| 20260902120151 | 17 | 30 | 0.0 | 3.2 | 0.00 | 0.46 | 0.00 | 94 | 1021.3 |
| 20260902110151 | 16 | 0 | 0.0 | 0.0 | 0.00 | 0.46 | 0.00 | 95 | 1021.2 |
| 20260902103150 | 16 | 0 | 0.0 | 0.0 | 0.00 | 0.51 | 0.00 | 95 | 1021.1 |
| 20260902100151 | 16 | 0 | 0.0 | 0.0 | 0.00 | 0.51 | 0.00 | 95 | 1020.8 |
| 20260902090151 | 16 | 0 | 0.0 | 0.0 | 0.00 | 0.51 | 0.00 | 95 | 1020.1 |
| 20260902080151 | 16 | 0 | 0.0 | 0.0 | 0.00 | 0.51 | 0.00 | 96 | 1019.9 |